2020,12,13,00,00,00,110.6,,,,,,,,,,,,,,
2020,12,13,00,01,00,,,,,,,,,,,,,,,
2020,12,13,00,02,00,117.4,,,,,,,,,,,,,,
2020,12,13,00,03,00,115.1,,,,,,,,,,,,,,
2020,12,13,00,04,00,116.2,,,,,,,,,,,,,,
2020,12,13,00,05,00,123.6,,,,,,,,,,,,,,
2020,12,13,00,06,00,123.7,,,,,,,,,,,,,,
2020,12,13,00,07,00,116.5,,,,,,,,,,,,,,
2020,12,13,00,08,00,112.9,,,,,,,,,,,,,,
2020,12,13,00,09,00,110.8,,,,,,,,,,,,,,
2020,12,13,00,10,00,107.0,,,,,,,,,,,,,,
2020,12,13,00,11,00,105.2,,,,,,,,,,,,,,
2020,12,13,00,12,00,95.5,,,,,,,,,,,,,,
2020,12,13,00,13,00,92.3,,,,,,,,,,,,,,
2020,12,13,00,14,00,89.8,,,,,,,,,,,,,,
2020,12,13,00,15,00,87.7,,,,,,,,,,,,,,
2020,12,13,00,16,00,114.9,,,,,,,,,,,,,,
2020,12,13,00,17,00,94.3,,,,,,,,,,,,,,
2020,12,13,00,18,00,90.2,,,,,,,,,,,,,,
2020,12,13,00,19,00,90.7,,,,,,,,,,,,,,
2020,12,13,00,20,00,94.7,,,,,,,,,,,,,,
2020,12,13,00,21,00,92.5,,,,,,,,,,,,,,
2020,12,13,00,22,00,99.5,,,,,,,,,,,,,,
2020,12,13,00,23,00,98.8,,,,,,,,,,,,,,
2020,12,13,00,24,00,98.6,,,,,,,,,,,,,,
2020,12,13,00,25,00,97.2,,,,,,,,,,,,,,
2020,12,13,00,26,00,97.3,,,,,,,,,,,,,,
2020,12,13,00,27,00,101.1,,,,,,,,,,,,,,
2020,12,13,00,28,00,91.4,,,,,,,,,,,,,,
2020,12,13,00,29,00,98.2,,,,,,,,,,,,,,
2020,12,13,00,30,00,104.0,,,,,,,,,,,,,,
2020,12,13,00,31,00,103.3,,,,,,,,,,,,,,
2020,12,13,00,32,00,112.4,,,,,,,,,,,,,,
2020,12,13,00,33,00,118.5,,,,,,,,,,,,,,
2020,12,13,00,34,00,113.7,,,,,,,,,,,,,,
2020,12,13,00,35,00,116.1,,,,,,,,,,,,,,
2020,12,13,00,36,00,111.4,,,,,,,,,,,,,,
2020,12,13,00,37,00,111.7,,,,,,,,,,,,,,
2020,12,13,00,38,00,114.6,,,,,,,,,,,,,,
2020,12,13,00,39,00,113.1,,,,,,,,,,,,,,
2020,12,13,00,40,00,116.4,,,,,,,,,,,,,,
2020,12,13,00,41,00,121.4,,,,,,,,,,,,,,
2020,12,13,00,42,00,126.2,,,,,,,,,,,,,,
2020,12,13,00,43,00,116.4,,,,,,,,,,,,,,
2020,12,13,00,44,00,56.7,,,,,,,,,,,,,,
2020,12,13,00,45,00,47.2,,,,,,,,,,,,,,
2020,12,13,00,46,00,113.2,,,,,,,,,,,,,,
2020,12,13,00,47,00,100.7,,,,,,,,,,,,,,
2020,12,13,00,48,00,108.3,,,,,,,,,,,,,,
2020,12,13,00,49,00,86.3,,,,,,,,,,,,,,
2020,12,13,00,50,00,42.7,,,,,,,,,,,,,,
2020,12,13,00,51,00,57.2,,,,,,,,,,,,,,
2020,12,13,00,52,00,65.7,,,,,,,,,,,,,,
2020,12,13,00,53,00,83.1,,,,,,,,,,,,,,
2020,12,13,00,54,00,108.6,,,,,,,,,,,,,,
2020,12,13,00,55,00,106.3,,,,,,,,,,,,,,
2020,12,13,00,56,00,99.9,,,,,,,,,,,,,,
2020,12,13,00,57,00,95.5,,,,,,,,,,,,,,
2020,12,13,00,58,00,77.5,,,,,,,,,,,,,,
2020,12,13,00,59,00,110.2,,,,,,,,,,,,,,
2020,12,13,01,00,00,114.7,,,,,,,,,,,,,,
2020,12,13,01,01,00,114.4,,,,,,,,,,,,,,
2020,12,13,01,02,00,117.9,,,,,,,,,,,,,,
2020,12,13,01,03,00,117.5,,,,,,,,,,,,,,
2020,12,13,01,04,00,120.4,,,,,,,,,,,,,,
2020,12,13,01,05,00,100.0,,,,,,,,,,,,,,
2020,12,13,01,06,00,55.9,,,,,,,,,,,,,,
2020,12,13,01,07,00,13.3,,,,,,,,,,,,,,
2020,12,13,01,08,00,58.5,,,,,,,,,,,,,,
2020,12,13,01,09,00,95.5,,,,,,,,,,,,,,
2020,12,13,01,10,00,60.4,,,,,,,,,,,,,,
2020,12,13,01,11,00,1.3,,,,,,,,,,,,,,
2020,12,13,01,12,00,23.7,,,,,,,,,,,,,,
2020,12,13,01,13,00,65.3,,,,,,,,,,,,,,
2020,12,13,01,14,00,53.6,,,,,,,,,,,,,,
2020,12,13,01,15,00,80.9,,,,,,,,,,,,,,
2020,12,13,01,16,00,28.3,,,,,,,,,,,,,,
2020,12,13,01,17,00,108.3,,,,,,,,,,,,,,
2020,12,13,01,18,00,112.3,,,,,,,,,,,,,,
2020,12,13,01,19,00,109.0,,,,,,,,,,,,,,
2020,12,13,01,20,00,98.6,,,,,,,,,,,,,,
2020,12,13,01,21,00,90.3,,,,,,,,,,,,,,
2020,12,13,01,22,00,85.5,,,,,,,,,,,,,,
2020,12,13,01,23,00,97.2,,,,,,,,,,,,,,
2020,12,13,01,24,00,105.0,,,,,,,,,,,,,,
2020,12,13,01,25,00,114.0,,,,,,,,,,,,,,
2020,12,13,01,26,00,121.1,,,,,,,,,,,,,,
2020,12,13,01,27,00,119.9,,,,,,,,,,,,,,
2020,12,13,01,28,00,122.7,,,,,,,,,,,,,,
2020,12,13,01,29,00,123.6,,,,,,,,,,,,,,
2020,12,13,01,30,00,116.2,,,,,,,,,,,,,,
2020,12,13,01,31,00,111.2,,,,,,,,,,,,,,
2020,12,13,01,32,00,113.1,,,,,,,,,,,,,,
2020,12,13,01,33,00,109.7,,,,,,,,,,,,,,
2020,12,13,01,34,00,108.3,,,,,,,,,,,,,,
2020,12,13,01,35,00,103.3,,,,,,,,,,,,,,
2020,12,13,01,36,00,106.0,,,,,,,,,,,,,,
2020,12,13,01,37,00,107.0,,,,,,,,,,,,,,
2020,12,13,01,38,00,117.6,,,,,,,,,,,,,,
2020,12,13,01,39,00,113.7,,,,,,,,,,,,,,
2020,12,13,01,40,00,112.2,,,,,,,,,,,,,,
2020,12,13,01,41,00,117.1,,,,,,,,,,,,,,
2020,12,13,01,42,00,112.3,,,,,,,,,,,,,,
2020,12,13,01,43,00,114.2,,,,,,,,,,,,,,
2020,12,13,01,44,00,109.3,,,,,,,,,,,,,,
2020,12,13,01,45,00,124.5,,,,,,,,,,,,,,
2020,12,13,01,46,00,129.6,,,,,,,,,,,,,,
2020,12,13,01,47,00,128.8,,,,,,,,,,,,,,
2020,12,13,01,48,00,115.8,,,,,,,,,,,,,,
2020,12,13,01,49,00,128.4,,,,,,,,,,,,,,
2020,12,13,01,50,00,148.3,,,,,,,,,,,,,,
2020,12,13,01,51,00,119.7,,,,,,,,,,,,,,
2020,12,13,01,52,00,128.9,,,,,,,,,,,,,,
2020,12,13,01,53,00,126.4,,,,,,,,,,,,,,
2020,12,13,01,54,00,121.2,,,,,,,,,,,,,,
2020,12,13,01,55,00,115.1,,,,,,,,,,,,,,
2020,12,13,01,56,00,117.1,,,,,,,,,,,,,,
2020,12,13,01,57,00,125.5,,,,,,,,,,,,,,
2020,12,13,01,58,00,114.7,,,,,,,,,,,,,,
2020,12,13,01,59,00,106.2,,,,,,,,,,,,,,
2020,12,13,02,00,00,101.4,,,,,,,,,,,,,,
2020,12,13,02,01,00,101.0,,,,,,,,,,,,,,
2020,12,13,02,02,00,99.7,,,,,,,,,,,,,,
2020,12,13,02,03,00,99.6,,,,,,,,,,,,,,
2020,12,13,02,04,00,99.9,,,,,,,,,,,,,,
2020,12,13,02,05,00,101.0,,,,,,,,,,,,,,
2020,12,13,02,06,00,105.2,,,,,,,,,,,,,,
2020,12,13,02,07,00,111.8,,,,,,,,,,,,,,
2020,12,13,02,08,00,103.6,,,,,,,,,,,,,,
2020,12,13,02,09,00,103.0,,,,,,,,,,,,,,
2020,12,13,02,10,00,104.1,,,,,,,,,,,,,,
2020,12,13,02,11,00,103.8,,,,,,,,,,,,,,
2020,12,13,02,12,00,103.3,,,,,,,,,,,,,,
2020,12,13,02,13,00,101.8,,,,,,,,,,,,,,
2020,12,13,02,14,00,101.3,,,,,,,,,,,,,,
2020,12,13,02,15,00,101.4,,,,,,,,,,,,,,
2020,12,13,02,16,00,102.8,,,,,,,,,,,,,,
2020,12,13,02,17,00,105.0,,,,,,,,,,,,,,
2020,12,13,02,18,00,108.0,,,,,,,,,,,,,,
2020,12,13,02,19,00,108.7,,,,,,,,,,,,,,
2020,12,13,02,20,00,111.0,,,,,,,,,,,,,,
2020,12,13,02,21,00,113.2,,,,,,,,,,,,,,
2020,12,13,02,22,00,116.8,,,,,,,,,,,,,,
2020,12,13,02,23,00,107.1,,,,,,,,,,,,,,
2020,12,13,02,24,00,103.9,,,,,,,,,,,,,,
2020,12,13,02,25,00,104.1,,,,,,,,,,,,,,
2020,12,13,02,26,00,103.6,,,,,,,,,,,,,,
2020,12,13,02,27,00,103.8,,,,,,,,,,,,,,
2020,12,13,02,28,00,105.2,,,,,,,,,,,,,,
2020,12,13,02,29,00,107.6,,,,,,,,,,,,,,
2020,12,13,02,30,00,108.3,,,,,,,,,,,,,,
2020,12,13,02,31,00,107.6,,,,,,,,,,,,,,
2020,12,13,02,32,00,103.6,,,,,,,,,,,,,,
2020,12,13,02,33,00,104.3,,,,,,,,,,,,,,
2020,12,13,02,34,00,103.8,,,,,,,,,,,,,,
2020,12,13,02,35,00,100.9,,,,,,,,,,,,,,
2020,12,13,02,36,00,107.0,,,,,,,,,,,,,,
2020,12,13,02,37,00,107.0,,,,,,,,,,,,,,
2020,12,13,02,38,00,106.9,,,,,,,,,,,,,,
2020,12,13,02,39,00,110.2,,,,,,,,,,,,,,
2020,12,13,02,40,00,115.5,,,,,,,,,,,,,,
2020,12,13,02,41,00,113.9,,,,,,,,,,,,,,
2020,12,13,02,42,00,108.6,,,,,,,,,,,,,,
2020,12,13,02,43,00,117.4,,,,,,,,,,,,,,
2020,12,13,02,44,00,115.9,,,,,,,,,,,,,,
2020,12,13,02,45,00,108.3,,,,,,,,,,,,,,
2020,12,13,02,46,00,100.1,,,,,,,,,,,,,,
2020,12,13,02,47,00,101.6,,,,,,,,,,,,,,
2020,12,13,02,48,00,103.4,,,,,,,,,,,,,,
2020,12,13,02,49,00,100.5,,,,,,,,,,,,,,
2020,12,13,02,50,00,102.2,,,,,,,,,,,,,,
2020,12,13,02,51,00,107.0,,,,,,,,,,,,,,
2020,12,13,02,52,00,112.5,,,,,,,,,,,,,,
2020,12,13,02,53,00,116.1,,,,,,,,,,,,,,
2020,12,13,02,54,00,113.8,,,,,,,,,,,,,,
2020,12,13,02,55,00,118.7,,,,,,,,,,,,,,
2020,12,13,02,56,00,121.9,,,,,,,,,,,,,,
2020,12,13,02,57,00,120.4,,,,,,,,,,,,,,
2020,12,13,02,58,00,113.9,,,,,,,,,,,,,,
2020,12,13,02,59,00,111.7,,,,,,,,,,,,,,
2020,12,13,03,00,00,112.6,,,,,,,,,,,,,,
2020,12,13,03,01,00,112.2,,,,,,,,,,,,,,
2020,12,13,03,02,00,117.9,,,,,,,,,,,,,,
2020,12,13,03,03,00,115.2,,,,,,,,,,,,,,
2020,12,13,03,04,00,113.4,,,,,,,,,,,,,,
2020,12,13,03,05,00,117.5,,,,,,,,,,,,,,
2020,12,13,03,06,00,115.6,,,,,,,,,,,,,,
2020,12,13,03,07,00,108.1,,,,,,,,,,,,,,
2020,12,13,03,08,00,110.2,,,,,,,,,,,,,,
2020,12,13,03,09,00,104.7,,,,,,,,,,,,,,
2020,12,13,03,10,00,107.5,,,,,,,,,,,,,,
2020,12,13,03,11,00,114.7,,,,,,,,,,,,,,
2020,12,13,03,12,00,104.9,,,,,,,,,,,,,,
2020,12,13,03,13,00,106.1,,,,,,,,,,,,,,
2020,12,13,03,14,00,102.9,,,,,,,,,,,,,,
2020,12,13,03,15,00,104.3,,,,,,,,,,,,,,
2020,12,13,03,16,00,110.7,,,,,,,,,,,,,,
2020,12,13,03,17,00,121.2,,,,,,,,,,,,,,
2020,12,13,03,18,00,122.2,,,,,,,,,,,,,,
2020,12,13,03,19,00,117.4,,,,,,,,,,,,,,
2020,12,13,03,20,00,116.3,,,,,,,,,,,,,,
2020,12,13,03,21,00,107.1,,,,,,,,,,,,,,
2020,12,13,03,22,00,105.0,,,,,,,,,,,,,,
2020,12,13,03,23,00,108.4,,,,,,,,,,,,,,
2020,12,13,03,24,00,113.2,,,,,,,,,,,,,,
2020,12,13,03,25,00,112.5,,,,,,,,,,,,,,
2020,12,13,03,26,00,114.6,,,,,,,,,,,,,,
2020,12,13,03,27,00,115.8,,,,,,,,,,,,,,
2020,12,13,03,28,00,116.9,,,,,,,,,,,,,,
2020,12,13,03,29,00,119.4,,,,,,,,,,,,,,
2020,12,13,03,30,00,119.0,,,,,,,,,,,,,,
2020,12,13,03,31,00,115.9,,,,,,,,,,,,,,
2020,12,13,03,32,00,118.4,,,,,,,,,,,,,,
2020,12,13,03,33,00,114.9,,,,,,,,,,,,,,
2020,12,13,03,34,00,114.8,,,,,,,,,,,,,,
2020,12,13,03,35,00,118.4,,,,,,,,,,,,,,
2020,12,13,03,36,00,120.4,,,,,,,,,,,,,,
2020,12,13,03,37,00,120.1,,,,,,,,,,,,,,
2020,12,13,03,38,00,122.1,,,,,,,,,,,,,,
2020,12,13,03,39,00,122.6,,,,,,,,,,,,,,
2020,12,13,03,40,00,111.2,,,,,,,,,,,,,,
2020,12,13,03,41,00,104.5,,,,,,,,,,,,,,
2020,12,13,03,42,00,107.3,,,,,,,,,,,,,,
2020,12,13,03,43,00,107.7,,,,,,,,,,,,,,
2020,12,13,03,44,00,108.5,,,,,,,,,,,,,,
2020,12,13,03,45,00,107.7,,,,,,,,,,,,,,
2020,12,13,03,46,00,114.1,,,,,,,,,,,,,,
2020,12,13,03,47,00,110.0,,,,,,,,,,,,,,
2020,12,13,03,48,00,111.4,,,,,,,,,,,,,,
2020,12,13,03,49,00,116.8,,,,,,,,,,,,,,
2020,12,13,03,50,00,126.8,,,,,,,,,,,,,,
2020,12,13,03,51,00,131.0,,,,,,,,,,,,,,
2020,12,13,03,52,00,120.2,,,,,,,,,,,,,,
2020,12,13,03,53,00,114.4,,,,,,,,,,,,,,
2020,12,13,03,54,00,113.3,,,,,,,,,,,,,,
2020,12,13,03,55,00,113.5,,,,,,,,,,,,,,
2020,12,13,03,56,00,117.0,,,,,,,,,,,,,,
2020,12,13,03,57,00,115.6,,,,,,,,,,,,,,
2020,12,13,03,58,00,114.9,,,,,,,,,,,,,,
2020,12,13,03,59,00,109.8,,,,,,,,,,,,,,
2020,12,13,04,00,00,111.9,,,,,,,,,,,,,,
2020,12,13,04,01,00,112.3,,,,,,,,,,,,,,
2020,12,13,04,02,00,113.7,,,,,,,,,,,,,,
2020,12,13,04,03,00,122.0,,,,,,,,,,,,,,
2020,12,13,04,04,00,119.5,,,,,,,,,,,,,,
2020,12,13,04,05,00,124.2,,,,,,,,,,,,,,
2020,12,13,04,06,00,123.1,,,,,,,,,,,,,,
2020,12,13,04,07,00,116.9,,,,,,,,,,,,,,
2020,12,13,04,08,00,117.9,,,,,,,,,,,,,,
2020,12,13,04,09,00,119.4,,,,,,,,,,,,,,
2020,12,13,04,10,00,118.8,,,,,,,,,,,,,,
2020,12,13,04,11,00,118.2,,,,,,,,,,,,,,
2020,12,13,04,12,00,117.2,,,,,,,,,,,,,,
2020,12,13,04,13,00,115.5,,,,,,,,,,,,,,
2020,12,13,04,14,00,113.7,,,,,,,,,,,,,,
2020,12,13,04,15,00,115.2,,,,,,,,,,,,,,
2020,12,13,04,16,00,119.9,,,,,,,,,,,,,,
2020,12,13,04,17,00,117.8,,,,,,,,,,,,,,
2020,12,13,04,18,00,119.7,,,,,,,,,,,,,,
2020,12,13,04,19,00,117.8,,,,,,,,,,,,,,
2020,12,13,04,20,00,116.6,,,,,,,,,,,,,,
2020,12,13,04,21,00,114.2,,,,,,,,,,,,,,
2020,12,13,04,22,00,119.7,,,,,,,,,,,,,,
2020,12,13,04,23,00,116.3,,,,,,,,,,,,,,
2020,12,13,04,24,00,124.8,,,,,,,,,,,,,,
2020,12,13,04,25,00,124.5,,,,,,,,,,,,,,
2020,12,13,04,26,00,119.7,,,,,,,,,,,,,,
2020,12,13,04,27,00,126.4,,,,,,,,,,,,,,
2020,12,13,04,28,00,134.5,,,,,,,,,,,,,,
2020,12,13,04,29,00,135.1,,,,,,,,,,,,,,
2020,12,13,04,30,00,131.8,,,,,,,,,,,,,,
2020,12,13,04,31,00,126.9,,,,,,,,,,,,,,
2020,12,13,04,32,00,123.8,,,,,,,,,,,,,,
2020,12,13,04,33,00,116.4,,,,,,,,,,,,,,
2020,12,13,04,34,00,109.7,,,,,,,,,,,,,,
2020,12,13,04,35,00,115.3,,,,,,,,,,,,,,
2020,12,13,04,36,00,118.0,,,,,,,,,,,,,,
2020,12,13,04,37,00,129.6,,,,,,,,,,,,,,
2020,12,13,04,38,00,114.1,,,,,,,,,,,,,,
2020,12,13,04,39,00,110.7,,,,,,,,,,,,,,
2020,12,13,04,40,00,112.2,,,,,,,,,,,,,,
2020,12,13,04,41,00,114.4,,,,,,,,,,,,,,
2020,12,13,04,42,00,117.6,,,,,,,,,,,,,,
2020,12,13,04,43,00,120.3,,,,,,,,,,,,,,
2020,12,13,04,44,00,122.3,,,,,,,,,,,,,,
2020,12,13,04,45,00,121.7,,,,,,,,,,,,,,
2020,12,13,04,46,00,124.3,,,,,,,,,,,,,,
2020,12,13,04,47,00,124.5,,,,,,,,,,,,,,
2020,12,13,04,48,00,120.1,,,,,,,,,,,,,,
2020,12,13,04,49,00,119.2,,,,,,,,,,,,,,
2020,12,13,04,50,00,120.8,,,,,,,,,,,,,,
2020,12,13,04,51,00,123.2,,,,,,,,,,,,,,
2020,12,13,04,52,00,123.0,,,,,,,,,,,,,,
2020,12,13,04,53,00,122.9,,,,,,,,,,,,,,
2020,12,13,04,54,00,119.0,,,,,,,,,,,,,,
2020,12,13,04,55,00,124.8,,,,,,,,,,,,,,
2020,12,13,04,56,00,123.5,,,,,,,,,,,,,,
2020,12,13,04,57,00,119.6,,,,,,,,,,,,,,
2020,12,13,04,58,00,119.6,,,,,,,,,,,,,,
2020,12,13,04,59,00,118.8,,,,,,,,,,,,,,
2020,12,13,05,00,00,117.5,,,,,,,,,,,,,,
2020,12,13,05,01,00,117.0,,,,,,,,,,,,,,
2020,12,13,05,02,00,116.9,,,,,,,,,,,,,,
2020,12,13,05,03,00,114.9,,,,,,,,,,,,,,
2020,12,13,05,04,00,117.5,,,,,,,,,,,,,,
2020,12,13,05,05,00,120.5,,,,,,,,,,,,,,
2020,12,13,05,06,00,118.6,,,,,,,,,,,,,,
2020,12,13,05,07,00,116.0,,,,,,,,,,,,,,
2020,12,13,05,08,00,113.1,,,,,,,,,,,,,,
2020,12,13,05,09,00,113.4,,,,,,,,,,,,,,
2020,12,13,05,10,00,114.8,,,,,,,,,,,,,,
2020,12,13,05,11,00,114.5,,,,,,,,,,,,,,
2020,12,13,05,12,00,114.3,,,,,,,,,,,,,,
2020,12,13,05,13,00,120.1,,,,,,,,,,,,,,
2020,12,13,05,14,00,127.2,,,,,,,,,,,,,,
2020,12,13,05,15,00,120.0,,,,,,,,,,,,,,
2020,12,13,05,16,00,118.1,,,,,,,,,,,,,,
2020,12,13,05,17,00,122.0,,,,,,,,,,,,,,
2020,12,13,05,18,00,111.7,,,,,,,,,,,,,,
2020,12,13,05,19,00,113.5,,,,,,,,,,,,,,
2020,12,13,05,20,00,124.6,,,,,,,,,,,,,,
2020,12,13,05,21,00,121.1,,,,,,,,,,,,,,
2020,12,13,05,22,00,121.9,,,,,,,,,,,,,,
2020,12,13,05,23,00,121.5,,,,,,,,,,,,,,
2020,12,13,05,24,00,121.6,,,,,,,,,,,,,,
2020,12,13,05,25,00,119.2,,,,,,,,,,,,,,
2020,12,13,05,26,00,120.3,,,,,,,,,,,,,,
2020,12,13,05,27,00,121.7,,,,,,,,,,,,,,
2020,12,13,05,28,00,124.7,,,,,,,,,,,,,,
2020,12,13,05,29,00,124.7,,,,,,,,,,,,,,
2020,12,13,05,30,00,126.4,,,,,,,,,,,,,,
2020,12,13,05,31,00,125.6,,,,,,,,,,,,,,
2020,12,13,05,32,00,121.6,,,,,,,,,,,,,,
2020,12,13,05,33,00,120.3,,,,,,,,,,,,,,
2020,12,13,05,34,00,120.9,,,,,,,,,,,,,,
2020,12,13,05,35,00,121.9,,,,,,,,,,,,,,
2020,12,13,05,36,00,123.5,,,,,,,,,,,,,,
2020,12,13,05,37,00,123.9,,,,,,,,,,,,,,
2020,12,13,05,38,00,123.3,,,,,,,,,,,,,,
2020,12,13,05,39,00,123.5,,,,,,,,,,,,,,
2020,12,13,05,40,00,124.1,,,,,,,,,,,,,,
2020,12,13,05,41,00,126.5,,,,,,,,,,,,,,
2020,12,13,05,42,00,125.0,,,,,,,,,,,,,,
2020,12,13,05,43,00,122.8,,,,,,,,,,,,,,
2020,12,13,05,44,00,122.3,,,,,,,,,,,,,,
2020,12,13,05,45,00,122.6,,,,,,,,,,,,,,
2020,12,13,05,46,00,123.0,,,,,,,,,,,,,,
2020,12,13,05,47,00,118.4,,,,,,,,,,,,,,
2020,12,13,05,48,00,122.1,,,,,,,,,,,,,,
2020,12,13,05,49,00,126.9,,,,,,,,,,,,,,
2020,12,13,05,50,00,120.1,,,,,,,,,,,,,,
2020,12,13,05,51,00,121.0,,,,,,,,,,,,,,
2020,12,13,05,52,00,122.5,,,,,,,,,,,,,,
2020,12,13,05,53,00,124.6,,,,,,,,,,,,,,
2020,12,13,05,54,00,126.2,,,,,,,,,,,,,,
2020,12,13,05,55,00,124.5,,,,,,,,,,,,,,
2020,12,13,05,56,00,123.9,,,,,,,,,,,,,,
2020,12,13,05,57,00,124.1,,,,,,,,,,,,,,
2020,12,13,05,58,00,125.4,,,,,,,,,,,,,,
2020,12,13,05,59,00,135.3,,,,,,,,,,,,,,
2020,12,13,06,00,00,136.6,,,,,,,,,,,,,,
2020,12,13,06,01,00,125.8,,,,,,,,,,,,,,
2020,12,13,06,02,00,124.2,,,,,,,,,,,,,,
2020,12,13,06,03,00,121.8,,,,,,,,,,,,,,
2020,12,13,06,04,00,123.2,,,,,,,,,,,,,,
2020,12,13,06,05,00,124.0,,,,,,,,,,,,,,
2020,12,13,06,06,00,122.2,,,,,,,,,,,,,,
2020,12,13,06,07,00,122.3,,,,,,,,,,,,,,
2020,12,13,06,08,00,122.1,,,,,,,,,,,,,,
2020,12,13,06,09,00,123.5,,,,,,,,,,,,,,
2020,12,13,06,10,00,124.5,,,,,,,,,,,,,,
2020,12,13,06,11,00,124.5,,,,,,,,,,,,,,
2020,12,13,06,12,00,124.6,,,,,,,,,,,,,,
2020,12,13,06,13,00,123.6,,,,,,,,,,,,,,
2020,12,13,06,14,00,124.7,,,,,,,,,,,,,,
2020,12,13,06,15,00,125.4,,,,,,,,,,,,,,
2020,12,13,06,16,00,124.7,,,,,,,,,,,,,,
2020,12,13,06,17,00,123.5,,,,,,,,,,,,,,
2020,12,13,06,18,00,121.4,,,,,,,,,,,,,,
2020,12,13,06,19,00,118.7,,,,,,,,,,,,,,
2020,12,13,06,20,00,117.2,,,,,,,,,,,,,,
2020,12,13,06,21,00,112.5,,,,,,,,,,,,,,
2020,12,13,06,22,00,107.5,,,,,,,,,,,,,,
2020,12,13,06,23,00,110.6,,,,,,,,,,,,,,
2020,12,13,06,24,00,122.4,,,,,,,,,,,,,,
2020,12,13,06,25,00,120.7,,,,,,,,,,,,,,
2020,12,13,06,26,00,117.6,,,,,,,,,,,,,,
2020,12,13,06,27,00,115.0,,,,,,,,,,,,,,
2020,12,13,06,28,00,111.1,,,,,,,,,,,,,,
2020,12,13,06,29,00,111.2,,,,,,,,,,,,,,
2020,12,13,06,30,00,113.2,,,,,,,,,,,,,,
2020,12,13,06,31,00,117.9,,,,,,,,,,,,,,
2020,12,13,06,32,00,114.2,,,,,,,,,,,,,,
2020,12,13,06,33,00,116.8,,,,,,,,,,,,,,
2020,12,13,06,34,00,119.5,,,,,,,,,,,,,,
2020,12,13,06,35,00,113.7,,,,,,,,,,,,,,
2020,12,13,06,36,00,109.6,,,,,,,,,,,,,,
2020,12,13,06,37,00,103.0,,,,,,,,,,,,,,
2020,12,13,06,38,00,100.4,,,,,,,,,,,,,,
2020,12,13,06,39,00,101.4,,,,,,,,,,,,,,
2020,12,13,06,40,00,111.9,,,,,,,,,,,,,,
2020,12,13,06,41,00,115.6,,,,,,,,,,,,,,
2020,12,13,06,42,00,114.0,,,,,,,,,,,,,,
2020,12,13,06,43,00,100.3,,,,,,,,,,,,,,
2020,12,13,06,44,00,115.7,,,,,,,,,,,,,,
2020,12,13,06,45,00,125.8,,,,,,,,,,,,,,
2020,12,13,06,46,00,124.4,,,,,,,,,,,,,,
2020,12,13,06,47,00,123.4,,,,,,,,,,,,,,
2020,12,13,06,48,00,124.4,,,,,,,,,,,,,,
2020,12,13,06,49,00,125.5,,,,,,,,,,,,,,
2020,12,13,06,50,00,127.8,,,,,,,,,,,,,,
2020,12,13,06,51,00,127.2,,,,,,,,,,,,,,
2020,12,13,06,52,00,116.2,,,,,,,,,,,,,,
2020,12,13,06,53,00,109.0,,,,,,,,,,,,,,
2020,12,13,06,54,00,113.1,,,,,,,,,,,,,,
2020,12,13,06,55,00,92.7,,,,,,,,,,,,,,
2020,12,13,06,56,00,64.4,,,,,,,,,,,,,,
2020,12,13,06,57,00,89.4,,,,,,,,,,,,,,
2020,12,13,06,58,00,106.2,,,,,,,,,,,,,,
2020,12,13,06,59,00,104.9,,,,,,,,,,,,,,
2020,12,13,07,00,00,84.2,,,,,,,,,,,,,,
2020,12,13,07,01,00,101.7,,,,,,,,,,,,,,
2020,12,13,07,02,00,111.6,,,,,,,,,,,,,,
2020,12,13,07,03,00,118.6,,,,,,,,,,,,,,
2020,12,13,07,04,00,130.4,,,,,,,,,,,,,,
2020,12,13,07,05,00,139.8,,,,,,,,,,,,,,
2020,12,13,07,06,00,149.4,,,,,,,,,,,,,,
2020,12,13,07,07,00,144.4,,,,,,,,,,,,,,
2020,12,13,07,08,00,148.7,,,,,,,,,,,,,,
2020,12,13,07,09,00,147.1,,,,,,,,,,,,,,
2020,12,13,07,10,00,142.0,,,,,,,,,,,,,,
2020,12,13,07,11,00,135.8,,,,,,,,,,,,,,
2020,12,13,07,12,00,129.5,,,,,,,,,,,,,,
2020,12,13,07,13,00,126.5,,,,,,,,,,,,,,
2020,12,13,07,14,00,126.9,,,,,,,,,,,,,,
2020,12,13,07,15,00,127.1,,,,,,,,,,,,,,
2020,12,13,07,16,00,131.9,,,,,,,,,,,,,,
2020,12,13,07,17,00,133.4,,,,,,,,,,,,,,
2020,12,13,07,18,00,133.4,,,,,,,,,,,,,,
2020,12,13,07,19,00,137.1,,,,,,,,,,,,,,
2020,12,13,07,20,00,136.3,,,,,,,,,,,,,,
2020,12,13,07,21,00,143.4,,,,,,,,,,,,,,
2020,12,13,07,22,00,149.1,,,,,,,,,,,,,,
2020,12,13,07,23,00,159.6,,,,,,,,,,,,,,
2020,12,13,07,24,00,,,,,,,,,,,,,,,
2020,12,13,07,25,00,,,,,,,,,,,,,,,
2020,12,13,07,26,00,180.5,,,,,,,,,,,,,,
2020,12,13,07,27,00,200.6,,,,,,,,,,,,,,
2020,12,13,07,28,00,182.1,,,,,,,,,,,,,,
2020,12,13,07,29,00,159.0,,,,,,,,,,,,,,
2020,12,13,07,30,00,150.5,,,,,,,,,,,,,,
2020,12,13,07,31,00,140.7,,,,,,,,,,,,,,
2020,12,13,07,32,00,135.6,,,,,,,,,,,,,,
2020,12,13,07,33,00,136.0,,,,,,,,,,,,,,
2020,12,13,07,34,00,140.8,,,,,,,,,,,,,,
2020,12,13,07,35,00,146.8,,,,,,,,,,,,,,
2020,12,13,07,36,00,157.0,,,,,,,,,,,,,,
2020,12,13,07,37,00,164.9,,,,,,,,,,,,,,
2020,12,13,07,38,00,154.8,,,,,,,,,,,,,,
2020,12,13,07,39,00,158.3,,,,,,,,,,,,,,
2020,12,13,07,40,00,167.6,,,,,,,,,,,,,,
2020,12,13,07,41,00,181.2,,,,,,,,,,,,,,
2020,12,13,07,42,00,190.7,,,,,,,,,,,,,,
2020,12,13,07,43,00,198.0,,,,,,,,,,,,,,
2020,12,13,07,44,00,160.3,,,,,,,,,,,,,,
2020,12,13,07,45,00,152.0,,,,,,,,,,,,,,
2020,12,13,07,46,00,152.1,,,,,,,,,,,,,,
2020,12,13,07,47,00,151.8,,,,,,,,,,,,,,
2020,12,13,07,48,00,152.9,,,,,,,,,,,,,,
2020,12,13,07,49,00,167.0,,,,,,,,,,,,,,
2020,12,13,07,50,00,186.2,,,,,,,,,,,,,,
2020,12,13,07,51,00,187.0,,,,,,,,,,,,,,
2020,12,13,07,52,00,178.4,,,,,,,,,,,,,,
2020,12,13,07,53,00,170.4,,,,,,,,,,,,,,
2020,12,13,07,54,00,170.0,,,,,,,,,,,,,,
2020,12,13,07,55,00,179.0,,,,,,,,,,,,,,
2020,12,13,07,56,00,195.1,,,,,,,,,,,,,,
2020,12,13,07,57,00,214.0,,,,,,,,,,,,,,
2020,12,13,07,58,00,244.3,,,,,,,,,,,,,,
2020,12,13,07,59,00,209.6,,,,,,,,,,,,,,
2020,12,13,08,00,00,201.7,,,,,,,,,,,,,,
2020,12,13,08,01,00,192.8,,,,,,,,,,,,,,
2020,12,13,08,02,00,178.9,,,,,,,,,,,,,,
2020,12,13,08,03,00,177.7,,,,,,,,,,,,,,
2020,12,13,08,04,00,175.9,,,,,,,,,,,,,,
2020,12,13,08,05,00,188.4,,,,,,,,,,,,,,
2020,12,13,08,06,00,194.4,,,,,,,,,,,,,,
2020,12,13,08,07,00,205.6,,,,,,,,,,,,,,
2020,12,13,08,08,00,232.3,,,,,,,,,,,,,,
2020,12,13,08,09,00,275.2,,,,,,,,,,,,,,
2020,12,13,08,10,00,310.5,,,,,,,,,,,,,,
2020,12,13,08,11,00,264.6,,,,,,,,,,,,,,
2020,12,13,08,12,00,221.9,,,,,,,,,,,,,,
2020,12,13,08,13,00,229.2,,,,,,,,,,,,,,
2020,12,13,08,14,00,218.0,,,,,,,,,,,,,,
2020,12,13,08,15,00,192.2,,,,,,,,,,,,,,
2020,12,13,08,16,00,198.6,,,,,,,,,,,,,,
2020,12,13,08,17,00,180.7,,,,,,,,,,,,,,
2020,12,13,08,18,00,176.9,,,,,,,,,,,,,,
2020,12,13,08,19,00,177.9,,,,,,,,,,,,,,
2020,12,13,08,20,00,187.9,,,,,,,,,,,,,,
2020,12,13,08,21,00,177.9,,,,,,,,,,,,,,
2020,12,13,08,22,00,187.2,,,,,,,,,,,,,,
2020,12,13,08,23,00,193.6,,,,,,,,,,,,,,
2020,12,13,08,24,00,196.8,,,,,,,,,,,,,,
2020,12,13,08,25,00,207.2,,,,,,,,,,,,,,
2020,12,13,08,26,00,222.8,,,,,,,,,,,,,,
2020,12,13,08,27,00,252.7,,,,,,,,,,,,,,
2020,12,13,08,28,00,273.3,,,,,,,,,,,,,,
2020,12,13,08,29,00,286.5,,,,,,,,,,,,,,
2020,12,13,08,30,00,298.9,,,,,,,,,,,,,,
2020,12,13,08,31,00,279.8,,,,,,,,,,,,,,
2020,12,13,08,32,00,249.6,,,,,,,,,,,,,,
2020,12,13,08,33,00,244.3,,,,,,,,,,,,,,
2020,12,13,08,34,00,238.9,,,,,,,,,,,,,,
2020,12,13,08,35,00,230.3,,,,,,,,,,,,,,
2020,12,13,08,36,00,240.1,,,,,,,,,,,,,,
2020,12,13,08,37,00,208.0,,,,,,,,,,,,,,
2020,12,13,08,38,00,205.9,,,,,,,,,,,,,,
2020,12,13,08,39,00,197.6,,,,,,,,,,,,,,
2020,12,13,08,40,00,201.0,,,,,,,,,,,,,,
2020,12,13,08,41,00,199.8,,,,,,,,,,,,,,
2020,12,13,08,42,00,200.7,,,,,,,,,,,,,,
2020,12,13,08,43,00,203.1,,,,,,,,,,,,,,
2020,12,13,08,44,00,228.0,,,,,,,,,,,,,,
2020,12,13,08,45,00,246.5,,,,,,,,,,,,,,
2020,12,13,08,46,00,210.8,,,,,,,,,,,,,,
2020,12,13,08,47,00,199.3,,,,,,,,,,,,,,
2020,12,13,08,48,00,223.1,,,,,,,,,,,,,,
2020,12,13,08,49,00,255.1,,,,,,,,,,,,,,
2020,12,13,08,50,00,259.5,,,,,,,,,,,,,,
2020,12,13,08,51,00,240.5,,,,,,,,,,,,,,
2020,12,13,08,52,00,243.0,,,,,,,,,,,,,,
2020,12,13,08,53,00,226.8,,,,,,,,,,,,,,
2020,12,13,08,54,00,206.9,,,,,,,,,,,,,,
2020,12,13,08,55,00,220.2,,,,,,,,,,,,,,
2020,12,13,08,56,00,230.3,,,,,,,,,,,,,,
2020,12,13,08,57,00,221.8,,,,,,,,,,,,,,
2020,12,13,08,58,00,231.1,,,,,,,,,,,,,,
2020,12,13,08,59,00,209.1,,,,,,,,,,,,,,
2020,12,13,09,00,00,207.8,,,,,,,,,,,,,,
2020,12,13,09,01,00,245.7,,,,,,,,,,,,,,
2020,12,13,09,02,00,226.5,,,,,,,,,,,,,,
2020,12,13,09,03,00,214.5,,,,,,,,,,,,,,
2020,12,13,09,04,00,204.9,,,,,,,,,,,,,,
2020,12,13,09,05,00,219.7,,,,,,,,,,,,,,
2020,12,13,09,06,00,208.3,,,,,,,,,,,,,,
2020,12,13,09,07,00,219.7,,,,,,,,,,,,,,
2020,12,13,09,08,00,225.2,,,,,,,,,,,,,,
2020,12,13,09,09,00,223.8,,,,,,,,,,,,,,
2020,12,13,09,10,00,221.4,,,,,,,,,,,,,,
2020,12,13,09,11,00,222.2,,,,,,,,,,,,,,
2020,12,13,09,12,00,227.9,,,,,,,,,,,,,,
2020,12,13,09,13,00,223.5,,,,,,,,,,,,,,
2020,12,13,09,14,00,225.6,,,,,,,,,,,,,,
2020,12,13,09,15,00,203.0,,,,,,,,,,,,,,
2020,12,13,09,16,00,197.9,,,,,,,,,,,,,,
2020,12,13,09,17,00,194.5,,,,,,,,,,,,,,
2020,12,13,09,18,00,196.1,,,,,,,,,,,,,,
2020,12,13,09,19,00,195.4,,,,,,,,,,,,,,
2020,12,13,09,20,00,193.8,,,,,,,,,,,,,,
2020,12,13,09,21,00,187.1,,,,,,,,,,,,,,
2020,12,13,09,22,00,196.6,,,,,,,,,,,,,,
2020,12,13,09,23,00,206.6,,,,,,,,,,,,,,
2020,12,13,09,24,00,199.0,,,,,,,,,,,,,,
2020,12,13,09,25,00,192.6,,,,,,,,,,,,,,
2020,12,13,09,26,00,189.2,,,,,,,,,,,,,,
2020,12,13,09,27,00,189.1,,,,,,,,,,,,,,
2020,12,13,09,28,00,186.1,,,,,,,,,,,,,,
2020,12,13,09,29,00,188.3,,,,,,,,,,,,,,
2020,12,13,09,30,00,185.0,,,,,,,,,,,,,,
2020,12,13,09,31,00,186.7,,,,,,,,,,,,,,
2020,12,13,09,32,00,208.5,,,,,,,,,,,,,,
2020,12,13,09,33,00,215.5,,,,,,,,,,,,,,
2020,12,13,09,34,00,223.9,,,,,,,,,,,,,,
2020,12,13,09,35,00,205.6,,,,,,,,,,,,,,
2020,12,13,09,36,00,204.4,,,,,,,,,,,,,,
2020,12,13,09,37,00,215.3,,,,,,,,,,,,,,
2020,12,13,09,38,00,219.8,,,,,,,,,,,,,,
2020,12,13,09,39,00,226.0,,,,,,,,,,,,,,
2020,12,13,09,40,00,227.0,,,,,,,,,,,,,,
2020,12,13,09,41,00,227.6,,,,,,,,,,,,,,
2020,12,13,09,42,00,250.4,,,,,,,,,,,,,,
2020,12,13,09,43,00,266.6,,,,,,,,,,,,,,
2020,12,13,09,44,00,253.5,,,,,,,,,,,,,,
2020,12,13,09,45,00,249.8,,,,,,,,,,,,,,